Погода в Митине

Россия / Костромская область     58°08′45″N   42°09′36″E
темп.,
°C
ветер,
м/с
пор.,
м/с
влажн.,
%
обл.,
%
осадки,
мм/ч
давл.,
гПа
погр.,
м
15 мая, сб
сб1500:00+14вюв269596 2.5 1015142
03:00+13юв269795 4.9 1015175
06:00+14вюв3109574 0.7 1014393
09:00+17юв368998 1.8 1012395
12:00+17зюз51094100 7.1 1014524
15:00+22вюв5971100 8.4 1010769
18:00+15св2397100 20.4 1011117
21:00+15ю413925 20.9 1010520
16 мая, вс
вс1600:00+13ю311979 0.0 1010358
03:00+13ю3119821 0.0 1010300
06:00+14ю412955 0.0 1011519
09:00+17ююз5107729 0.0 1011995
12:00+20юз6105770 0.0 10121727
15:00+21юз595614 0.3 10121850
18:00+19юз511646 0.5 10121445
21:00+14ююз39875 0.6 1013218
17 мая, пн
пн1700:00+12юз310965 0.0 1014263
03:00+11юз25974 0.0 101596
06:00+14зюз1390100 0.0 1016134
09:00+19юз236861 0.0 1017649
12:00+22юз235464 0.0 10171427
15:00+23ююз2348100 0.0 10161556
18:00+22ююв136281 0.0 1015125
21:00+16вюв227945 0.0 101522
18 мая, вт
вт1800:00+15вюв368762 0.1 1015110
03:00+13вюв389597 0.2 1014137
06:00+15вюв388874 0.0 1014200
09:00+22юв475917 0.0 1013491
12:00+27юв510375 0.0 10121709
15:00+28ююв58363 0.0 10112019
18:00+24ююв411480 0.0 1011590
21:00+18юв3147373 0.0 1011319
19 мая, ср
ср1900:00+16юв3138432 0.0 1011258
03:00+14ююв31088100 0.0 1010209
06:00+17вюв3879100 0.0 1009189
09:00+22вюв41360100 0.0 1008617
12:00+25ююв6114292 0.0 10071398
15:00+26ююв6124485 0.0 10051795
18:00+22ю4106263 0.1 10041146
21:00+16юв6137184 0.5 1003904